This is the latest recevied weather packets stored in our database for station/object K4CRS-13. If no packets are shown the sender has not sent any weather packets the latest 1 day(s).
| Time | Temp. | Humidity | Pressure | Rain* | Wind** | Luminosity | Snow |
|---|---|---|---|---|---|---|---|
| 1778043175 | 21.11° C | 79% | 1045.5 hPa | 0 mm | 1.34 m/s, 188° | 0 W/m² | - |
| 1778042872 | 21.11° C | 79% | 1045.2 hPa | 0 mm | 1.79 m/s, 178° | 0 W/m² | - |
| 1778042570 | 21.11° C | 78% | 1045.5 hPa | 0 mm | 1.79 m/s, 197° | 0 W/m² | - |
| 1778042267 | 21.11° C | 78% | 1045.5 hPa | 0 mm | 1.34 m/s, 172° | 0 W/m² | - |
| 1778041964 | 21.11° C | 78% | 1045.7 hPa | 0 mm | 1.34 m/s, 156° | 0 W/m² | - |
| 1778041663 | 21.11° C | 78% | 1045.7 hPa | 0 mm | 1.79 m/s, 196° | 0 W/m² | - |
| 1778041361 | 21.11° C | 79% | 1045.8 hPa | 0 mm | 1.79 m/s, 193° | 0 W/m² | - |
| 1778041059 | 21.11° C | 79% | 1045.3 hPa | 0 mm | 0.89 m/s, 183° | 0 W/m² | - |
| 1778040756 | 21.11° C | 79% | 1045.7 hPa | 0 mm | 1.34 m/s, 184° | 0 W/m² | - |
| 1778040453 | 21.11° C | 79% | 1045.6 hPa | 0 mm | 1.34 m/s, 186° | 0 W/m² | - |
| 1778040150 | 21.11° C | 79% | 1045.7 hPa | 0 mm | 0.89 m/s, 170° | 0 W/m² | - |
| 1778039847 | 21.11° C | 79% | 1045.5 hPa | 0 mm | 0.89 m/s, 183° | 0 W/m² | - |
| 1778039544 | 21.11° C | 79% | 1045.5 hPa | 0 mm | 0.89 m/s, 192° | 0 W/m² | - |
| 1778039240 | 20.56° C | 79% | 1045.6 hPa | 0 mm | 1.79 m/s, 189° | 0 W/m² | - |
| 1778038938 | 20.56° C | 79% | 1045.4 hPa | 0 mm | 0.89 m/s, 182° | 0 W/m² | - |
| 1778038635 | 20.56° C | 79% | 1045.3 hPa | 0 mm | 1.34 m/s, 195° | 0 W/m² | - |
| 1778038332 | 20.56° C | 79% | 1045.5 hPa | 0 mm | 1.34 m/s, 174° | 0 W/m² | - |
| 1778038029 | 20.56° C | 79% | 1045.5 hPa | 0 mm | 1.34 m/s, 171° | 0 W/m² | - |
| 1778037726 | 20.56° C | 79% | 1045.2 hPa | 0 mm | 1.34 m/s, 174° | 0 W/m² | - |
| 1778037422 | 20.56° C | 79% | 1045.5 hPa | 0 mm | 0.89 m/s, 171° | 0 W/m² | - |
| 1778037120 | 20.56° C | 79% | 1045.5 hPa | 0 mm | 0.89 m/s, 179° | 0 W/m² | - |
| 1778036818 | 20.56° C | 79% | 1045.4 hPa | 0 mm | 0.89 m/s, 178° | 0 W/m² | - |
| 1778036515 | 20.56° C | 79% | 1045.4 hPa | 0 mm | 1.34 m/s, 188° | 0 W/m² | - |
| 1778036212 | 20.56° C | 79% | 1045.1 hPa | 0 mm | 0.45 m/s, 179° | 0 W/m² | - |
| 1778035908 | 20.56° C | 79% | 1045.1 hPa | 0 mm | 1.34 m/s, 185° | 0 W/m² | - |
* Rain latest hour (hover to see other rain measurements)
** Current wind speed in m/s (hover to see current wind gust speed)